Location: Lone Pine Community Mobile Home Park
(42.7367°N, 73.8567°W)
Time: 07:40:11
(UTC+00:00)

SKYMED 2 - Pass Details

Date: 29 October 2020
Orbit: 621 x 623 km, 97.9° (Epoch: 02 December)

Event Time Altitude Azimuth Distance (km) Brightness Sun altitude
Rises 22:42:30 0° 17° (NNE) 2,913 6.7 -10.0°
Reaches altitude 10° 22:44:46 10° 23° (NNE) 2,001 5.9 -10.4°
Maximum altitude 22:49:01 52° 100° (E) 776 3.7 -11.1°
Drops below altitude 10° 22:53:14 10° 177° (S) 1,984 6.2 -11.9°
Sets 22:55:27 0° 182° (S) 2,885 7.1 -12.3°
